Weather in Petrovka

Russia / Tomsk District     57°11′30″N   83°55′37″E
temp.,
°C
wind,
m/s
gust,
m/s
humid.,
%
clouds,
%
prec.,
mm/h
press.,
hPa
HPBL,
m
24 january, mon
mon2401:00−23nw21100100 0.1 10359
04:00−24nnw11100100 0.0 10369
07:00−25wsw11100100 0.1 10379
10:00−25sw11100100 0.0 10389
13:00−16ssw1295100 0.1 1037131
16:00−14sw259468 0.0 1037232
19:00−20ssw2210074 0.0 103734
22:00−17sw2597100 0.1 1036124
25 january, tue
tue2501:00−17sw2597100 0.2 1035130
04:00−19sw369975 0.1 1034119
07:00−20ssw2599100 0.1 1033104
10:00−17ssw2597100 0.1 1032151
13:00−14ssw3593100 0.4 1031276
16:00−12ssw359496 0.1 1029349
19:00−17s2699100 0.2 102966
22:00−14s269697 0.0 1029133
26 january, wed
wed2601:00−18s359991 0.0 102973
04:00−19s259983 0.0 102962
07:00−21s2410056 0.0 102947
10:00−17sse259877 0.1 102999
13:00−14sse349482 0.1 1029179
16:00−12se239396 0.1 1029252
19:00−19e1110087 0.1 10319
22:00−21sse1110084 0.1 10329
27 january, thu
thu2701:00−24ese00100100 0.1 10329
04:00−24ese0010097 0.0 10339
07:00−24sw0010084 0.0 10349
10:00−26wsw1110097 0.0 10359
13:00−17s119569 0.0 103599
16:00−15sse119643 0.0 103543
19:00−22s2210063 0.0 10379
22:00−24ssw2210067 0.0 103711
28 january, fri
fri2801:00−26s22100100 0.0 103727
04:00−24s23100100 0.0 103751
07:00−25s2510099 0.1 103774
10:00−24s3710083 0.0 1037117
13:00−18s369486 0.0 1037212
16:00−16s369474 0.0 1036278
19:00−20s389926 0.0 1036117
22:00−22s2610014 0.0 103684